Time,TemperatureF,DewpointF,PressureIn,WindDirection,WindDirectionDegrees,WindSpeedMPH,WindSpeedGustMPH,Humidity,HourlyPrecipIn,Conditions,Clouds,dailyrainin,SoftwareType,DateUTC
2013-05-22 00:01:00,62.3,16.9,29.81,West,274,0.0,0.0,17,0.00,CLR,SCT,0.00,WeatherDisplay:10.37,2013-05-22 07:01:00,
2013-05-22 00:06:00,61.6,17.6,29.81,West,274,0.0,0.0,18,0.00,CLR,SCT,0.00,WeatherDisplay:10.37,2013-05-22 07:06:00,
2013-05-22 00:11:00,60.9,17.0,29.81,West,274,0.0,1.2,18,0.00,CLR,SCT,0.00,WeatherDisplay:10.37,2013-05-22 07:11:00,
2013-05-22 00:16:00,60.7,16.9,29.81,West,274,0.0,0.0,18,0.00,CLR,SCT,0.00,WeatherDisplay:10.37,2013-05-22 07:16:00,
2013-05-22 00:21:00,60.2,17.7,29.81,West,274,0.0,0.0,19,0.00,CLR,SCT,0.00,WeatherDisplay:10.37,2013-05-22 07:21:00,
2013-05-22 00:26:00,59.8,17.4,29.81,West,274,0.0,0.0,19,0.00,CLR,SCT,0.00,WeatherDisplay:10.37,2013-05-22 07:26:00,
2013-05-22 00:31:00,59.7,18.5,29.80,West,274,0.0,0.0,20,0.00,CLR,SCT,0.00,WeatherDisplay:10.37,2013-05-22 07:31:00,
2013-05-22 00:36:00,59.6,18.4,29.80,West,274,0.0,0.0,20,0.00,CLR,SCT,0.00,WeatherDisplay:10.37,2013-05-22 07:36:00,
2013-05-22 00:41:00,59.5,18.3,29.80,West,274,0.0,0.0,20,0.00,CLR,SCT,0.00,WeatherDisplay:10.37,2013-05-22 07:41:00,
2013-05-22 00:46:00,59.2,18.1,29.80,West,274,0.0,0.0,20,0.00,CLR,SCT,0.00,WeatherDisplay:10.37,2013-05-22 07:46:00,
2013-05-22 00:51:00,59.3,18.2,29.80,West,274,0.1,1.2,20,0.00,CLR,SCT,0.00,WeatherDisplay:10.37,2013-05-22 07:51:00,
2013-05-22 00:56:00,59.9,17.5,29.80,West,274,0.0,0.0,19,0.00,CLR,SCT,0.00,WeatherDisplay:10.37,2013-05-22 07:56:00,
2013-05-22 01:01:00,60.0,17.6,29.80,West,274,0.0,0.0,19,0.00,CLR,SCT,0.00,WeatherDisplay:10.37,2013-05-22 08:01:00,
2013-05-22 01:06:00,59.9,17.5,29.80,West,274,0.0,0.0,19,0.00,CLR,SCT,0.00,WeatherDisplay:10.37,2013-05-22 08:06:00,
2013-05-22 01:11:00,59.7,18.5,29.80,West,274,0.1,1.2,20,0.00,CLR,SCT,0.00,WeatherDisplay:10.37,2013-05-22 08:11:00,
2013-05-22 01:16:00,59.6,18.4,29.80,West,274,0.0,0.0,20,0.00,CLR,SCT,0.00,WeatherDisplay:10.37,2013-05-22 08:16:00,
2013-05-22 01:21:00,59.5,18.3,29.80,West,274,0.0,0.0,20,0.00,CLR,SCT,0.00,WeatherDisplay:10.37,2013-05-22 08:21:00,
2013-05-22 01:26:00,59.2,18.1,29.80,West,274,0.0,0.0,20,0.00,CLR,SCT,0.00,WeatherDisplay:10.37,2013-05-22 08:26:00,
2013-05-22 01:31:00,59.1,18.0,29.80,West,274,0.0,0.0,20,0.00,CLR,SCT,0.00,WeatherDisplay:10.37,2013-05-22 08:31:00,
2013-05-22 01:36:00,59.1,18.0,29.80,West,274,0.0,0.0,20,0.00,CLR,SCT,0.00,WeatherDisplay:10.37,2013-05-22 08:36:00,
2013-05-22 01:41:00,59.1,18.0,29.80,West,274,0.0,0.0,20,0.00,CLR,SCT,0.00,WeatherDisplay:10.37,2013-05-22 08:41:00,
2013-05-22 01:46:00,58.9,17.8,29.80,West,274,0.0,0.0,20,0.00,CLR,SCT,0.00,WeatherDisplay:10.37,2013-05-22 08:46:00,
2013-05-22 01:51:00,58.6,18.7,29.80,West,274,0.0,0.0,21,0.00,CLR,SCT,0.00,WeatherDisplay:10.37,2013-05-22 08:51:00,
2013-05-22 01:56:00,58.0,18.2,29.80,West,274,0.0,0.0,21,0.00,CLR,SCT,0.00,WeatherDisplay:10.37,2013-05-22 08:56:00,
2013-05-22 02:01:00,57.1,18.6,29.80,West,274,0.0,0.0,22,0.00,CLR,SCT,0.00,WeatherDisplay:10.37,2013-05-22 09:01:00,
2013-05-22 02:06:00,56.7,18.2,29.80,West,274,0.0,0.0,22,0.00,CLR,SCT,0.00,WeatherDisplay:10.37,2013-05-22 09:06:00,
2013-05-22 02:11:00,56.5,19.1,29.80,West,274,0.0,0.0,23,0.00,CLR,SCT,0.00,WeatherDisplay:10.37,2013-05-22 09:11:00,
2013-05-22 02:16:00,56.1,18.8,29.80,West,274,0.0,0.0,23,0.00,CLR,SCT,0.00,WeatherDisplay:10.37,2013-05-22 09:16:00,
2013-05-22 02:21:00,55.6,18.3,29.81,West,274,0.0,0.0,23,0.00,CLR,SCT,0.00,WeatherDisplay:10.37,2013-05-22 09:21:00,
2013-05-22 02:26:00,55.6,18.3,29.81,West,274,0.0,0.0,23,0.00,CLR,SCT,0.00,WeatherDisplay:10.37,2013-05-22 09:26:00,
2013-05-22 02:31:00,56.1,18.8,29.81,West,274,0.0,0.0,23,0.00,CLR,SCT,0.00,WeatherDisplay:10.37,2013-05-22 09:31:00,
2013-05-22 02:36:00,56.3,17.9,29.81,West,274,0.0,0.0,22,0.00,CLR,SCT,0.00,WeatherDisplay:10.37,2013-05-22 09:36:00,
2013-05-22 02:41:00,56.4,18.0,29.81,West,274,0.0,0.0,22,0.00,CLR,SCT,0.00,WeatherDisplay:10.37,2013-05-22 09:41:00,
2013-05-22 02:46:00,56.6,18.1,29.81,West,274,0.0,0.0,22,0.00,CLR,SCT,0.00,WeatherDisplay:10.37,2013-05-22 09:46:00,
2013-05-22 02:51:00,56.7,18.2,29.81,West,274,0.0,0.0,22,0.00,CLR,SCT,0.00,WeatherDisplay:10.37,2013-05-22 09:51:00,
2013-05-22 02:56:00,57.0,17.4,29.81,West,274,0.0,1.2,21,0.00,CLR,SCT,0.00,WeatherDisplay:10.37,2013-05-22 09:56:00,
2013-05-22 03:01:00,57.4,17.7,29.81,West,274,0.1,1.2,21,0.00,CLR,SCT,0.00,WeatherDisplay:10.37,2013-05-22 10:01:00,
2013-05-22 03:06:00,58.0,18.2,29.81,West,274,0.0,1.2,21,0.00,CLR,SCT,0.00,WeatherDisplay:10.37,2013-05-22 10:06:00,
2013-05-22 03:11:00,58.5,18.6,29.81,West,274,0.0,0.0,21,0.00,CLR,SCT,0.00,WeatherDisplay:10.37,2013-05-22 10:11:00,
2013-05-22 03:16:00,58.7,17.7,29.81,West,274,0.0,0.0,20,0.00,CLR,SCT,0.00,WeatherDisplay:10.37,2013-05-22 10:16:00,
2013-05-22 03:21:00,58.7,18.8,29.81,West,274,0.0,0.0,21,0.00,CLR,SCT,0.00,WeatherDisplay:10.37,2013-05-22 10:21:00,
2013-05-22 03:26:00,58.5,18.6,29.81,West,274,0.0,0.0,21,0.00,CLR,SCT,0.00,WeatherDisplay:10.37,2013-05-22 10:26:00,
2013-05-22 03:31:00,58.6,18.7,29.81,West,274,0.0,0.0,21,0.00,CLR,SCT,0.00,WeatherDisplay:10.37,2013-05-22 10:31:00,
2013-05-22 03:36:00,58.7,18.8,29.81,West,274,0.1,1.2,21,0.00,CLR,SCT,0.00,WeatherDisplay:10.37,2013-05-22 10:36:00,
2013-05-22 03:41:00,58.6,18.7,29.81,West,274,0.0,0.0,21,0.00,CLR,SCT,0.00,WeatherDisplay:10.37,2013-05-22 10:41:00,
2013-05-22 03:46:00,58.0,18.2,29.81,West,274,0.1,1.2,21,0.00,CLR,SCT,0.00,WeatherDisplay:10.37,2013-05-22 10:46:00,
2013-05-22 03:51:00,57.5,18.9,29.81,West,274,0.0,0.0,22,0.00,CLR,SCT,0.00,WeatherDisplay:10.37,2013-05-22 10:51:00,
2013-05-22 03:56:00,57.2,18.6,29.81,West,274,0.0,0.0,22,0.00,CLR,SCT,0.00,WeatherDisplay:10.37,2013-05-22 10:56:00,
2013-05-22 04:01:00,56.8,20.3,29.81,West,274,0.0,0.0,24,0.00,CLR,SCT,0.00,WeatherDisplay:10.37,2013-05-22 11:01:00,
2013-05-22 04:06:00,56.3,20.9,29.81,West,274,0.0,0.0,25,0.00,CLR,SCT,0.00,WeatherDisplay:10.37,2013-05-22 11:06:00,
2013-05-22 04:11:00,55.6,19.3,29.81,West,274,0.0,0.0,24,0.00,CLR,SCT,0.00,WeatherDisplay:10.37,2013-05-22 11:11:00,
2013-05-22 04:16:00,55.3,19.1,29.81,West,274,0.0,0.0,24,0.00,CLR,SCT,0.00,WeatherDisplay:10.37,2013-05-22 11:16:00,
2013-05-22 04:21:00,55.4,19.2,29.81,West,274,0.0,0.0,24,0.00,CLR,SCT,0.00,WeatherDisplay:10.37,2013-05-22 11:21:00,
2013-05-22 04:26:00,55.5,19.2,29.81,West,274,0.0,0.0,24,0.00,CLR,SCT,0.00,WeatherDisplay:10.37,2013-05-22 11:26:00,
2013-05-22 04:31:00,55.3,19.1,29.81,West,274,0.0,0.0,24,0.00,CLR,SCT,0.00,WeatherDisplay:10.37,2013-05-22 11:31:00,
2013-05-22 04:36:00,55.4,19.2,29.81,West,274,0.0,0.0,24,0.00,CLR,SCT,0.00,WeatherDisplay:10.37,2013-05-22 11:36:00,
2013-05-22 04:41:00,55.7,19.4,29.81,West,274,0.0,0.0,24,0.00,CLR,SCT,0.00,WeatherDisplay:10.37,2013-05-22 11:41:00,
2013-05-22 04:46:00,55.9,18.6,29.81,West,274,0.0,0.0,23,0.00,CLR,SCT,0.00,WeatherDisplay:10.37,2013-05-22 11:46:00,
2013-05-22 04:51:00,56.0,19.7,29.81,West,274,0.0,0.0,24,0.00,CLR,SCT,0.00,WeatherDisplay:10.37,2013-05-22 11:51:00,
2013-05-22 04:56:00,56.0,19.7,29.81,West,274,0.0,0.0,24,0.00,CLR,SCT,0.00,WeatherDisplay:10.37,2013-05-22 11:56:00,
2013-05-22 05:01:00,55.8,19.5,29.81,West,274,0.0,1.2,24,0.00,CLR,SCT,0.00,WeatherDisplay:10.37,2013-05-22 12:01:00,
2013-05-22 05:06:00,55.4,19.2,29.81,West,274,0.0,0.0,24,0.00,CLR,SCT,0.00,WeatherDisplay:10.37,2013-05-22 12:06:00,
2013-05-22 05:11:00,55.4,19.2,29.81,West,274,0.0,0.0,24,0.00,CLR,SCT,0.00,WeatherDisplay:10.37,2013-05-22 12:11:00,
2013-05-22 05:16:00,55.5,20.2,29.81,West,274,0.0,0.0,25,0.00,CLR,SCT,0.00,WeatherDisplay:10.37,2013-05-22 12:16:00,
2013-05-22 05:21:00,55.4,20.1,29.81,West,274,0.0,0.0,25,0.00,CLR,SCT,0.00,WeatherDisplay:10.37,2013-05-22 12:21:00,
2013-05-22 05:26:00,55.2,19.9,29.81,West,274,0.0,0.0,25,0.00,CLR,SCT,0.00,WeatherDisplay:10.37,2013-05-22 12:26:00,
2013-05-22 05:31:00,55.3,20.0,29.82,West,274,0.0,0.0,25,0.00,CLR,SCT,0.00,WeatherDisplay:10.37,2013-05-22 12:31:00,
2013-05-22 05:36:00,55.1,19.9,29.82,West,274,0.0,0.0,25,0.00,CLR,SCT,0.00,WeatherDisplay:10.37,2013-05-22 12:36:00,
2013-05-22 05:41:00,55.2,19.9,29.82,West,274,0.0,1.2,25,0.00,CLR,SCT,0.00,WeatherDisplay:10.37,2013-05-22 12:41:00,
2013-05-22 05:46:00,55.9,21.5,29.82,West,274,0.0,0.0,26,0.00,CLR,SCT,0.00,WeatherDisplay:10.37,2013-05-22 12:46:00,
2013-05-22 05:51:00,56.4,21.0,29.82,West,274,0.0,0.0,25,0.00,CLR,SCT,0.00,WeatherDisplay:10.37,2013-05-22 12:51:00,
2013-05-22 05:56:00,56.9,22.3,29.83,West,274,0.0,0.0,26,0.00,CLR,SCT,0.00,WeatherDisplay:10.37,2013-05-22 12:56:00,
2013-05-22 06:01:00,57.6,22.9,29.83,West,274,0.0,0.0,26,0.00,CLR,SCT,0.00,WeatherDisplay:10.37,2013-05-22 13:01:00,
2013-05-22 06:06:00,58.2,25.2,29.83,West,274,0.0,0.0,28,0.00,CLR,SCT,0.00,WeatherDisplay:10.37,2013-05-22 13:06:00,
2013-05-22 06:11:00,58.7,25.6,29.82,West,274,0.0,0.0,28,0.00,CLR,SCT,0.00,WeatherDisplay:10.37,2013-05-22 13:11:00,
2013-05-22 06:16:00,59.5,24.5,29.82,West,274,0.0,0.0,26,0.00,CLR,SCT,0.00,WeatherDisplay:10.37,2013-05-22 13:16:00,
2013-05-22 06:21:00,60.4,29.6,29.83,West,274,0.0,0.0,31,0.00,CLR,SCT,0.00,WeatherDisplay:10.37,2013-05-22 13:21:00,
2013-05-22 06:26:00,61.0,30.9,29.83,West,274,0.0,0.0,32,0.00,CLR,SCT,0.00,WeatherDisplay:10.37,2013-05-22 13:26:00,
2013-05-22 06:31:00,61.6,29.0,29.83,West,274,0.0,0.0,29,0.00,CLR,SCT,0.00,WeatherDisplay:10.37,2013-05-22 13:31:00,
2013-05-22 06:36:00,62.6,30.7,29.83,West,274,0.0,0.0,30,0.00,CLR,SCT,0.00,WeatherDisplay:10.37,2013-05-22 13:36:00,
2013-05-22 06:41:00,63.3,31.3,29.82,West,274,0.0,0.0,30,0.00,CLR,SCT,0.00,WeatherDisplay:10.37,2013-05-22 13:41:00,
2013-05-22 06:46:00,64.2,32.1,29.83,West,274,0.0,0.0,30,0.00,CLR,SCT,0.00,WeatherDisplay:10.37,2013-05-22 13:46:00,
2013-05-22 06:51:00,65.1,32.0,29.83,West,274,0.0,0.0,29,0.00,CLR,SCT,0.00,WeatherDisplay:10.37,2013-05-22 13:51:00,
2013-05-22 06:56:00,65.8,32.6,29.83,West,274,0.0,0.0,29,0.00,CLR,SCT,0.00,WeatherDisplay:10.37,2013-05-22 13:56:00,
2013-05-22 07:01:00,66.5,33.2,29.83,West,274,0.0,0.0,29,0.00,CLR,SCT,0.00,WeatherDisplay:10.37,2013-05-22 14:01:00,
2013-05-22 07:06:00,67.1,30.1,29.83,West,274,0.0,1.2,25,0.00,CLR,SCT,0.00,WeatherDisplay:10.37,2013-05-22 14:06:00,
2013-05-22 07:11:00,67.5,30.4,29.83,West,274,0.0,0.0,25,0.00,CLR,SCT,0.00,WeatherDisplay:10.37,2013-05-22 14:11:00,
2013-05-22 07:16:00,67.8,27.5,29.83,West,274,0.0,0.0,22,0.00,CLR,SCT,0.00,WeatherDisplay:10.37,2013-05-22 14:16:00,
2013-05-22 07:21:00,68.3,24.4,29.83,West,274,0.0,1.2,19,0.00,CLR,SCT,0.00,WeatherDisplay:10.37,2013-05-22 14:21:00,
2013-05-22 07:26:00,69.0,25.0,29.83,West,274,0.0,0.0,19,0.00,CLR,SCT,0.00,WeatherDisplay:10.37,2013-05-22 14:26:00,
2013-05-22 07:31:00,69.8,24.3,29.83,West,274,0.0,0.0,18,0.00,CLR,SCT,0.00,WeatherDisplay:10.37,2013-05-22 14:31:00,
2013-05-22 07:36:00,70.6,25.0,29.83,West,274,0.0,0.0,18,0.00,CLR,SCT,0.00,WeatherDisplay:10.37,2013-05-22 14:36:00,
2013-05-22 07:41:00,71.3,26.9,29.83,ENE,63,0.0,1.2,19,0.00,CLR,SCT,0.00,WeatherDisplay:10.37,2013-05-22 14:41:00,
2013-05-22 07:46:00,71.7,27.2,29.83,ENE,69,0.0,0.0,19,0.00,CLR,SCT,0.00,WeatherDisplay:10.37,2013-05-22 14:46:00,
2013-05-22 07:51:00,72.1,26.2,29.83,ENE,69,0.2,1.2,18,0.00,CLR,SCT,0.00,WeatherDisplay:10.37,2013-05-22 14:51:00,
2013-05-22 07:56:00,72.2,24.9,29.83,ENE,69,0.8,1.2,17,0.00,CLR,SCT,0.00,WeatherDisplay:10.37,2013-05-22 14:56:00,
2013-05-22 08:01:00,72.2,26.3,29.83,ENE,69,0.0,0.0,18,0.00,CLR,SCT,0.00,WeatherDisplay:10.37,2013-05-22 15:01:00,
2013-05-22 08:06:00,72.7,25.3,29.83,ENE,69,0.0,1.2,17,0.00,CLR,SCT,0.00,WeatherDisplay:10.37,2013-05-22 15:06:00,
2013-05-22 08:11:00,73.1,25.7,29.83,ENE,69,0.0,0.0,17,0.00,CLR,SCT,0.00,WeatherDisplay:10.37,2013-05-22 15:11:00,
2013-05-22 08:16:00,73.7,26.1,29.83,ENE,69,0.0,3.5,17,0.00,CLR,SCT,0.00,WeatherDisplay:10.37,2013-05-22 15:16:00,
2013-05-22 08:21:00,74.0,26.4,29.83,ENE,69,0.0,3.5,17,0.00,CLR,SCT,0.00,WeatherDisplay:10.37,2013-05-22 15:21:00,
2013-05-22 08:26:00,77.1,22.4,29.83,South,178,6.1,8.0,13,0.00,CLR,SCT,0.00,WeatherDisplay:10.37,2013-05-22 15:26:00,
2013-05-22 08:31:00,77.9,21.2,29.83,SSE,154,4.4,6.9,12,0.00,CLR,SCT,0.00,WeatherDisplay:10.37,2013-05-22 15:31:00,
2013-05-22 08:36:00,79.0,22.0,29.83,SE,136,1.5,3.0,12,0.00,CLR,SCT,0.00,WeatherDisplay:10.37,2013-05-22 15:36:00,
2013-05-22 08:41:00,79.1,20.0,29.83,SE,146,7.5,11.5,11,0.00,CLR,SCT,0.00,WeatherDisplay:10.37,2013-05-22 15:41:00,
2013-05-22 08:46:00,79.4,20.3,29.83,SSE,161,9.1,10.4,11,0.00,CLR,SCT,0.00,WeatherDisplay:10.37,2013-05-22 15:46:00,
2013-05-22 08:51:00,79.2,22.2,29.83,SE,142,2.9,6.9,12,0.00,CLR,SCT,0.00,WeatherDisplay:10.37,2013-05-22 15:51:00,
2013-05-22 08:57:00,79.8,20.6,29.83,SSE,150,3.9,6.9,11,0.00,CLR,SCT,0.00,WeatherDisplay:10.37,2013-05-22 15:57:00,
2013-05-22 09:02:00,80.6,21.2,29.83,SE,132,5.9,9.2,11,0.00,CLR,SCT,0.00,WeatherDisplay:10.37,2013-05-22 16:02:00,
2013-05-22 09:07:00,80.6,21.2,29.83,SSE,166,8.0,9.2,11,0.00,CLR,SCT,0.00,WeatherDisplay:10.37,2013-05-22 16:07:00,
2013-05-22 09:12:00,81.0,21.5,29.83,SSE,162,7.3,7.3,11,0.00,CLR,SCT,0.00,WeatherDisplay:10.37,2013-05-22 16:12:00,
2013-05-22 09:17:00,81.1,21.6,29.82,SSE,150,6.5,10.4,11,0.00,CLR,SCT,0.00,WeatherDisplay:10.37,2013-05-22 16:17:00,
2013-05-22 09:22:00,81.3,21.7,29.82,SSE,147,4.5,6.9,11,0.00,CLR,SCT,0.00,WeatherDisplay:10.37,2013-05-22 16:22:00,
2013-05-22 09:27:00,80.8,19.1,29.82,SSE,163,8.9,11.5,10,0.00,CLR,SCT,0.00,WeatherDisplay:10.37,2013-05-22 16:27:00,
2013-05-22 09:32:00,80.8,21.3,29.82,SSE,165,5.7,10.4,11,0.00,CLR,SCT,0.00,WeatherDisplay:10.37,2013-05-22 16:32:00,
2013-05-22 09:37:00,81.2,21.7,29.82,SE,143,9.1,13.8,11,0.00,CLR,SCT,0.00,WeatherDisplay:10.37,2013-05-22 16:37:00,
2013-05-22 09:42:00,81.4,19.6,29.82,East,81,4.2,8.1,10,0.00,CLR,SCT,0.00,WeatherDisplay:10.37,2013-05-22 16:42:00,
2013-05-22 09:47:00,81.7,19.8,29.82,South,175,4.7,8.1,10,0.00,CLR,SCT,0.00,WeatherDisplay:10.37,2013-05-22 16:47:00,
2013-05-22 09:52:00,81.8,19.9,29.82,SE,146,6.7,10.0,10,0.00,CLR,SCT,0.00,WeatherDisplay:10.37,2013-05-22 16:52:00,
2013-05-22 09:57:00,82.1,20.1,29.82,SE,146,7.8,11.5,10,0.00,CLR,SCT,0.00,WeatherDisplay:10.37,2013-05-22 16:57:00,
2013-05-22 10:02:00,82.0,17.6,29.82,NW,313,0.8,3.5,9,0.00,CLR,SCT,0.00,WeatherDisplay:10.37,2013-05-22 17:02:00,
2013-05-22 10:07:00,81.5,19.6,29.82,NE,56,4.3,8.1,10,0.00,CLR,SCT,0.00,WeatherDisplay:10.37,2013-05-22 17:07:00,
2013-05-22 10:12:00,82.8,20.6,29.82,NNE,30,2.1,8.1,10,0.00,CLR,SCT,0.00,WeatherDisplay:10.37,2013-05-22 17:12:00,
2013-05-22 10:17:00,82.3,17.8,29.81,ENE,74,4.0,6.9,9,0.00,CLR,SCT,0.00,WeatherDisplay:10.37,2013-05-22 17:17:00,
2013-05-22 10:22:00,81.4,19.6,29.82,ENE,78,2.5,3.5,10,0.00,CLR,SCT,0.00,WeatherDisplay:10.37,2013-05-22 17:22:00,
2013-05-22 10:27:00,81.5,19.6,29.82,East,99,2.7,6.9,10,0.00,CLR,SCT,0.00,WeatherDisplay:10.37,2013-05-22 17:27:00,
2013-05-22 10:32:00,81.6,19.7,29.82,ENE,64,1.8,3.5,10,0.00,CLR,SCT,0.00,WeatherDisplay:10.37,2013-05-22 17:32:00,
2013-05-22 10:37:00,81.9,17.5,29.82,East,86,1.0,3.5,9,0.00,CLR,SCT,0.00,WeatherDisplay:10.37,2013-05-22 17:37:00,
2013-05-22 10:42:00,82.9,20.7,29.81,NE,55,5.9,6.9,10,0.00,CLR,SCT,0.00,WeatherDisplay:10.37,2013-05-22 17:42:00,
2013-05-22 10:47:00,83.1,20.9,29.81,NNE,24,0.5,2.3,10,0.00,CLR,SCT,0.00,WeatherDisplay:10.37,2013-05-22 17:47:00,
2013-05-22 10:52:00,82.9,18.2,29.81,NNE,22,1.8,3.5,9,0.00,CLR,SCT,0.00,WeatherDisplay:10.37,2013-05-22 17:52:00,
2013-05-22 10:57:00,82.9,20.7,29.82,NNE,23,5.4,6.9,10,0.00,CLR,SCT,0.00,WeatherDisplay:10.37,2013-05-22 17:57:00,
2013-05-22 11:02:00,82.8,15.4,29.81,NNW,329,3.6,5.8,8,0.00,CLR,SCT,0.00,WeatherDisplay:10.37,2013-05-22 18:02:00,
2013-05-22 11:07:00,83.5,16.0,29.81,SSW,192,0.8,2.3,8,0.00,CLR,SCT,0.00,WeatherDisplay:10.37,2013-05-22 18:07:00,
2013-05-22 11:12:00,85.2,14.1,29.81,SSE,159,2.7,4.0,7,0.00,CLR,SCT,0.00,WeatherDisplay:10.37,2013-05-22 18:12:00,
2013-05-22 11:17:00,84.7,16.8,29.81,ESE,104,1.8,3.5,8,0.00,CLR,SCT,0.00,WeatherDisplay:10.37,2013-05-22 18:17:00,
2013-05-22 11:22:00,86.0,23.1,29.81,ENE,58,0.8,3.5,10,0.00,CLR,SCT,0.00,WeatherDisplay:10.37,2013-05-22 18:22:00,
2013-05-22 11:27:00,86.8,26.0,29.81,South,169,0.1,1.2,11,0.00,CLR,SCT,0.00,WeatherDisplay:10.37,2013-05-22 18:27:00,
2013-05-22 11:32:00,87.0,21.3,29.80,South,187,0.4,1.0,9,0.00,CLR,SCT,0.00,WeatherDisplay:10.37,2013-05-22 18:32:00,
2013-05-22 11:37:00,86.6,21.0,29.80,WSW,245,3.1,5.8,9,0.00,CLR,SCT,0.00,WeatherDisplay:10.37,2013-05-22 18:37:00,
2013-05-22 11:42:00,86.2,20.7,29.80,South,185,2.1,4.6,9,0.00,CLR,SCT,0.00,WeatherDisplay:10.37,2013-05-22 18:42:00,
2013-05-22 11:47:00,86.7,21.1,29.80,South,184,0.1,1.2,9,0.00,CLR,SCT,0.00,WeatherDisplay:10.37,2013-05-22 18:47:00,
2013-05-22 11:52:00,87.1,18.6,29.80,South,184,0.1,1.2,8,0.00,CLR,SCT,0.00,WeatherDisplay:10.37,2013-05-22 18:52:00,
2013-05-22 11:57:00,87.3,21.5,29.79,South,184,0.0,1.2,9,0.00,CLR,SCT,0.00,WeatherDisplay:10.37,2013-05-22 18:57:00,
2013-05-22 12:02:00,87.6,21.8,29.79,South,184,0.0,0.0,9,0.00,CLR,SCT,0.00,WeatherDisplay:10.37,2013-05-22 19:02:00,
2013-05-22 12:07:00,87.7,19.1,29.79,South,180,2.1,5.8,8,0.00,CLR,SCT,0.00,WeatherDisplay:10.37,2013-05-22 19:07:00,
2013-05-22 12:12:00,87.7,19.1,29.78,SSW,203,2.7,4.6,8,0.00,CLR,SCT,0.00,WeatherDisplay:10.37,2013-05-22 19:12:00,
2013-05-22 12:17:00,87.9,19.2,29.78,SSW,192,3.7,5.8,8,0.00,CLR,SCT,0.00,WeatherDisplay:10.37,2013-05-22 19:17:00,
2013-05-22 12:22:00,87.5,18.9,29.78,SSW,200,1.7,4.6,8,0.00,CLR,SCT,0.00,WeatherDisplay:10.37,2013-05-22 19:22:00,
2013-05-22 12:27:00,87.2,15.6,29.78,South,185,2.2,6.0,7,0.00,CLR,SCT,0.00,WeatherDisplay:10.37,2013-05-22 19:27:00,
2013-05-22 12:32:00,87.0,15.5,29.78,South,188,3.3,5.8,7,0.00,CLR,SCT,0.00,WeatherDisplay:10.37,2013-05-22 19:32:00,
2013-05-22 12:37:00,86.9,15.4,29.78,West,260,2.3,3.5,7,0.00,CLR,SCT,0.00,WeatherDisplay:10.37,2013-05-22 19:37:00,
2013-05-22 12:42:00,87.2,15.6,29.77,WSW,256,3.1,8.0,7,0.00,CLR,SCT,0.00,WeatherDisplay:10.37,2013-05-22 19:42:00,
2013-05-22 12:47:00,87.4,15.8,29.77,SSW,207,3.2,5.8,7,0.00,CLR,SCT,0.00,WeatherDisplay:10.37,2013-05-22 19:47:00,
2013-05-22 12:52:00,88.1,16.3,29.77,SW,236,1.5,5.8,7,0.00,CLR,SCT,0.00,WeatherDisplay:10.37,2013-05-22 19:52:00,
2013-05-22 12:57:00,88.2,12.8,29.77,West,268,7.3,11.5,6,0.00,CLR,SCT,0.00,WeatherDisplay:10.37,2013-05-22 19:57:00,
2013-05-22 13:02:00,88.1,16.3,29.77,WSW,245,0.3,1.2,7,0.00,CLR,SCT,0.00,WeatherDisplay:10.37,2013-05-22 20:02:00,
2013-05-22 13:07:00,88.2,16.3,29.77,SW,225,1.1,4.6,7,0.00,CLR,SCT,0.00,WeatherDisplay:10.37,2013-05-22 20:07:00,
2013-05-22 13:12:00,88.5,19.7,29.77,SW,223,0.1,1.2,8,0.00,CLR,SCT,0.00,WeatherDisplay:10.37,2013-05-22 20:12:00,
2013-05-22 13:17:00,89.0,13.4,29.77,SW,214,1.0,3.5,6,0.00,CLR,SCT,0.00,WeatherDisplay:10.37,2013-05-22 20:17:00,
2013-05-22 13:22:00,89.5,17.3,29.76,SW,228,1.0,1.2,7,0.00,CLR,SCT,0.00,WeatherDisplay:10.37,2013-05-22 20:22:00,
2013-05-22 13:27:00,89.5,13.7,29.76,West,263,0.9,3.5,6,0.00,CLR,SCT,0.00,WeatherDisplay:10.37,2013-05-22 20:27:00,
2013-05-22 13:32:00,89.6,13.8,29.76,West,259,0.1,1.2,6,0.00,CLR,SCT,0.00,WeatherDisplay:10.37,2013-05-22 20:32:00,
2013-05-22 13:37:00,90.2,14.2,29.76,WSW,250,1.3,1.3,6,0.00,CLR,SCT,0.00,WeatherDisplay:10.37,2013-05-22 20:37:00,
2013-05-22 13:42:00,89.2,13.5,29.76,West,267,0.0,1.2,6,0.00,CLR,SCT,0.00,WeatherDisplay:10.37,2013-05-22 20:42:00,
2013-05-22 13:47:00,88.9,13.3,29.76,West,267,0.0,1.2,6,0.00,CLR,SCT,0.00,WeatherDisplay:10.37,2013-05-22 20:47:00,
2013-05-22 13:52:00,89.5,17.3,29.75,West,267,0.0,0.0,7,0.00,CLR,SCT,0.00,WeatherDisplay:10.37,2013-05-22 20:52:00,
2013-05-22 13:57:00,89.7,17.4,29.75,SW,227,2.9,11.5,7,0.00,CLR,SCT,0.00,WeatherDisplay:10.37,2013-05-22 20:57:00,
2013-05-22 14:02:00,89.6,13.8,29.75,WSW,244,0.2,2.3,6,0.00,CLR,SCT,0.00,WeatherDisplay:10.37,2013-05-22 21:02:00,
2013-05-22 14:07:00,89.3,13.6,29.75,South,181,4.3,5.8,6,0.00,CLR,SCT,0.00,WeatherDisplay:10.37,2013-05-22 21:07:00,
2013-05-22 14:12:00,90.3,14.3,29.74,WSW,242,5.0,9.2,6,0.00,CLR,SCT,0.00,WeatherDisplay:10.37,2013-05-22 21:12:00,
2013-05-22 14:17:00,90.8,14.7,29.74,SW,227,3.7,4.6,6,0.00,CLR,SCT,0.00,WeatherDisplay:10.37,2013-05-22 21:17:00,
2013-05-22 14:22:00,91.1,10.8,29.74,SSW,212,4.3,9.2,5,0.00,CLR,SCT,0.00,WeatherDisplay:10.37,2013-05-22 21:22:00,
2013-05-22 14:27:00,90.8,10.5,29.74,South,182,1.5,8.1,5,0.00,CLR,SCT,0.00,WeatherDisplay:10.37,2013-05-22 21:27:00,
2013-05-22 14:32:00,91.1,14.9,29.74,West,263,2.0,5.8,6,0.00,CLR,SCT,0.00,WeatherDisplay:10.37,2013-05-22 21:32:00,
2013-05-22 14:37:00,91.1,14.9,29.74,SW,223,4.2,6.9,6,0.00,CLR,SCT,0.00,WeatherDisplay:10.37,2013-05-22 21:37:00,
2013-05-22 14:42:00,91.0,14.8,29.74,SSW,209,1.7,9.2,6,0.00,CLR,SCT,0.00,WeatherDisplay:10.37,2013-05-22 21:42:00,
2013-05-22 14:47:00,91.1,14.9,29.73,West,275,3.7,9.2,6,0.00,CLR,SCT,0.00,WeatherDisplay:10.37,2013-05-22 21:47:00,
2013-05-22 14:52:00,91.2,15.0,29.73,SW,236,3.5,5.8,6,0.00,CLR,SCT,0.00,WeatherDisplay:10.37,2013-05-22 21:52:00,
2013-05-22 14:57:00,90.8,10.5,29.73,West,261,4.2,9.2,5,0.00,CLR,SCT,0.00,WeatherDisplay:10.37,2013-05-22 21:57:00,
2013-05-22 15:02:00,90.3,10.2,29.73,West,261,3.9,11.5,5,0.00,CLR,SCT,0.00,WeatherDisplay:10.37,2013-05-22 22:02:00,
2013-05-22 15:07:00,89.9,14.0,29.73,SSW,210,2.4,6.9,6,0.00,CLR,SCT,0.00,WeatherDisplay:10.37,2013-05-22 22:07:00,
2013-05-22 15:13:00,89.0,9.3,29.73,West,266,2.9,6.9,5,0.00,CLR,SCT,0.00,WeatherDisplay:10.37,2013-05-22 22:13:00,
2013-05-22 15:18:00,88.7,13.2,29.72,SW,233,1.9,5.8,6,0.00,CLR,SCT,0.00,WeatherDisplay:10.37,2013-05-22 22:18:00,
2013-05-22 15:23:00,89.9,14.0,29.72,West,272,2.8,8.1,6,0.00,CLR,SCT,0.00,WeatherDisplay:10.37,2013-05-22 22:23:00,
2013-05-22 15:28:00,89.9,14.0,29.72,SSW,192,4.6,6.9,6,0.00,CLR,SCT,0.00,WeatherDisplay:10.37,2013-05-22 22:28:00,
2013-05-22 15:33:00,90.1,14.2,29.72,SSW,209,2.5,10.4,6,0.00,CLR,SCT,0.00,WeatherDisplay:10.37,2013-05-22 22:33:00,
2013-05-22 15:38:00,90.4,10.3,29.72,South,177,4.5,11.5,5,0.00,CLR,SCT,0.00,WeatherDisplay:10.37,2013-05-22 22:38:00,
2013-05-22 15:43:00,90.4,10.3,29.72,WSW,256,4.6,6.9,5,0.00,CLR,SCT,0.00,WeatherDisplay:10.37,2013-05-22 22:43:00,
2013-05-22 15:48:00,90.0,14.1,29.72,WSW,255,4.1,8.1,6,0.00,CLR,SCT,0.00,WeatherDisplay:10.37,2013-05-22 22:48:00,
2013-05-22 15:53:00,89.5,13.7,29.72,WSW,257,3.1,8.1,6,0.00,CLR,SCT,0.00,WeatherDisplay:10.37,2013-05-22 22:53:00,
2013-05-22 15:58:00,88.9,13.3,29.72,SW,219,2.7,8.1,6,0.00,CLR,SCT,0.00,WeatherDisplay:10.37,2013-05-22 22:58:00,
2013-05-22 16:03:00,89.0,13.4,29.72,WSW,242,2.1,4.6,6,0.00,CLR,SCT,0.00,WeatherDisplay:10.37,2013-05-22 23:03:00,
2013-05-22 16:08:00,89.2,13.5,29.72,West,261,3.6,9.2,6,0.00,CLR,SCT,0.00,WeatherDisplay:10.37,2013-05-22 23:08:00,
2013-05-22 16:13:00,89.2,13.5,29.71,West,271,5.3,10.0,6,0.00,CLR,SCT,0.00,WeatherDisplay:10.37,2013-05-22 23:13:00,
2013-05-22 16:18:00,88.8,13.2,29.71,SSW,202,3.9,8.1,6,0.00,CLR,SCT,0.00,WeatherDisplay:10.37,2013-05-22 23:18:00,
2013-05-22 16:23:00,88.9,13.3,29.71,SW,230,2.4,6.0,6,0.00,CLR,SCT,0.00,WeatherDisplay:10.37,2013-05-22 23:23:00,
2013-05-22 16:28:00,88.8,13.2,29.71,SW,225,4.5,7.0,6,0.00,CLR,SCT,0.00,WeatherDisplay:10.37,2013-05-22 23:28:00,
2013-05-22 16:33:00,88.9,13.3,29.71,SW,222,3.2,11.5,6,0.00,CLR,SCT,0.00,WeatherDisplay:10.37,2013-05-22 23:33:00,
2013-05-22 16:38:00,88.8,13.2,29.71,West,260,2.6,5.8,6,0.00,CLR,SCT,0.00,WeatherDisplay:10.37,2013-05-22 23:38:00,
2013-05-22 16:43:00,89.0,13.4,29.71,West,265,1.7,3.5,6,0.00,CLR,SCT,0.00,WeatherDisplay:10.37,2013-05-22 23:43:00,
2013-05-22 16:48:00,88.7,13.2,29.71,West,275,2.8,5.8,6,0.00,CLR,SCT,0.00,WeatherDisplay:10.37,2013-05-22 23:48:00,
2013-05-22 16:53:00,88.6,13.1,29.71,SW,236,2.0,3.5,6,0.00,CLR,SCT,0.00,WeatherDisplay:10.37,2013-05-22 23:53:00,
2013-05-22 16:58:00,88.8,16.8,29.70,SW,220,1.8,4.6,7,0.00,CLR,SCT,0.00,WeatherDisplay:10.37,2013-05-22 23:58:00,
2013-05-22 17:03:00,88.6,13.1,29.70,SW,234,4.9,7.0,6,0.00,CLR,SCT,0.00,WeatherDisplay:10.37,2013-05-23 00:03:00,
2013-05-22 17:08:00,87.9,12.6,29.71,SW,225,1.4,3.5,6,0.00,CLR,SCT,0.00,WeatherDisplay:10.37,2013-05-23 00:08:00,
2013-05-22 17:13:00,87.6,12.4,29.70,SW,221,3.4,5.8,6,0.00,CLR,SCT,0.00,WeatherDisplay:10.37,2013-05-23 00:13:00,
2013-05-22 17:18:00,87.4,15.8,29.71,WSW,246,2.6,5.8,7,0.00,CLR,SCT,0.00,WeatherDisplay:10.37,2013-05-23 00:18:00,
2013-05-22 17:23:00,87.4,15.8,29.70,SW,221,5.1,12.7,7,0.00,CLR,SCT,0.00,WeatherDisplay:10.37,2013-05-23 00:23:00,
2013-05-22 17:28:00,87.7,16.0,29.70,SW,225,5.3,11.5,7,0.00,CLR,SCT,0.00,WeatherDisplay:10.37,2013-05-23 00:28:00,
2013-05-22 17:33:00,87.5,15.8,29.70,West,273,0.0,1.2,7,0.00,CLR,SCT,0.00,WeatherDisplay:10.37,2013-05-23 00:33:00,
2013-05-22 17:38:00,87.6,15.9,29.70,SSW,203,3.7,6.0,7,0.00,CLR,SCT,0.00,WeatherDisplay:10.37,2013-05-23 00:38:00,
2013-05-22 17:43:00,87.2,15.6,29.70,SW,232,2.9,5.8,7,0.00,CLR,SCT,0.00,WeatherDisplay:10.37,2013-05-23 00:43:00,
2013-05-22 17:48:00,87.1,15.5,29.70,SW,218,2.5,5.8,7,0.00,CLR,SCT,0.00,WeatherDisplay:10.37,2013-05-23 00:48:00,
2013-05-22 17:53:00,86.9,15.4,29.71,South,171,2.5,4.6,7,0.00,CLR,SCT,0.00,WeatherDisplay:10.37,2013-05-23 00:53:00,
2013-05-22 17:58:00,86.7,15.2,29.71,South,177,1.5,5.8,7,0.00,CLR,SCT,0.00,WeatherDisplay:10.37,2013-05-23 00:58:00,
2013-05-22 18:03:00,86.8,15.3,29.70,SW,231,1.0,7.0,7,0.00,CLR,SCT,0.00,WeatherDisplay:10.37,2013-05-23 01:03:00,
2013-05-22 18:08:00,86.3,15.0,29.71,SW,222,1.0,6.9,7,0.00,CLR,SCT,0.00,WeatherDisplay:10.37,2013-05-23 01:08:00,
2013-05-22 18:13:00,85.8,14.6,29.71,South,176,0.2,1.2,7,0.00,CLR,SCT,0.00,WeatherDisplay:10.37,2013-05-23 01:13:00,
2013-05-22 18:18:00,85.8,14.6,29.71,SW,221,0.7,3.5,7,0.00,CLR,SCT,0.00,WeatherDisplay:10.37,2013-05-23 01:18:00,
2013-05-22 18:23:00,85.3,14.2,29.71,SSW,202,2.4,4.6,7,0.00,CLR,SCT,0.00,WeatherDisplay:10.37,2013-05-23 01:23:00,
2013-05-22 18:28:00,84.8,13.9,29.71,SSW,194,0.6,2.3,7,0.00,CLR,SCT,0.00,WeatherDisplay:10.37,2013-05-23 01:28:00,
2013-05-22 18:33:00,84.2,13.4,29.71,SSW,203,0.8,3.5,7,0.00,CLR,SCT,0.00,WeatherDisplay:10.37,2013-05-23 01:33:00,
2013-05-22 18:38:00,83.8,13.1,29.71,South,178,0.1,1.2,7,0.00,CLR,SCT,0.00,WeatherDisplay:10.37,2013-05-23 01:38:00,
2013-05-22 18:43:00,83.4,12.8,29.71,West,263,3.6,6.9,7,0.00,CLR,SCT,0.00,WeatherDisplay:10.37,2013-05-23 01:43:00,
2013-05-22 18:48:00,83.1,15.7,29.71,SW,216,0.0,0.0,8,0.00,CLR,SCT,0.00,WeatherDisplay:10.37,2013-05-23 01:48:00,
2013-05-22 18:53:00,82.7,15.4,29.71,South,190,0.2,2.3,8,0.00,CLR,SCT,0.00,WeatherDisplay:10.37,2013-05-23 01:53:00,
2013-05-22 18:58:00,82.4,15.1,29.72,South,190,0.0,0.0,8,0.00,CLR,SCT,0.00,WeatherDisplay:10.37,2013-05-23 01:58:00,
2013-05-22 19:03:00,82.1,14.9,29.72,South,173,0.1,0.0,8,0.00,CLR,SCT,0.00,WeatherDisplay:10.37,2013-05-23 02:03:00,
2013-05-22 19:08:00,81.7,14.6,29.72,South,173,0.0,1.2,8,0.00,CLR,SCT,0.00,WeatherDisplay:10.37,2013-05-23 02:08:00,
2013-05-22 19:13:00,81.0,16.8,29.72,WSW,237,0.0,0.0,9,0.00,CLR,SCT,0.00,WeatherDisplay:10.37,2013-05-23 02:13:00,
2013-05-22 19:18:00,80.5,16.4,29.72,West,271,0.0,0.0,9,0.00,CLR,SCT,0.00,WeatherDisplay:10.37,2013-05-23 02:18:00,
2013-05-22 19:23:00,80.3,16.3,29.72,West,271,0.0,0.0,9,0.00,CLR,SCT,0.00,WeatherDisplay:10.37,2013-05-23 02:23:00,
2013-05-22 19:28:00,79.7,18.3,29.73,West,271,0.0,0.0,10,0.00,CLR,SCT,0.00,WeatherDisplay:10.37,2013-05-23 02:28:00,
2013-05-22 19:33:00,78.6,17.4,29.73,West,271,0.0,0.0,10,0.00,CLR,SCT,0.00,WeatherDisplay:10.37,2013-05-23 02:33:00,
2013-05-22 19:38:00,77.8,19.0,29.73,West,271,0.0,0.0,11,0.00,CLR,SCT,0.00,WeatherDisplay:10.37,2013-05-23 02:38:00,
2013-05-22 19:43:00,77.1,18.5,29.73,West,271,0.0,0.0,11,0.00,CLR,SCT,0.00,WeatherDisplay:10.37,2013-05-23 02:43:00,
2013-05-22 19:48:00,76.3,17.9,29.73,West,271,0.0,0.0,11,0.00,CLR,SCT,0.00,WeatherDisplay:10.37,2013-05-23 02:48:00,
2013-05-22 19:53:00,75.5,19.3,29.73,West,271,0.0,0.0,12,0.00,CLR,SCT,0.00,WeatherDisplay:10.37,2013-05-23 02:53:00,
2013-05-22 19:58:00,75.0,18.9,29.73,West,271,0.0,0.0,12,0.00,CLR,SCT,0.00,WeatherDisplay:10.37,2013-05-23 02:58:00,
2013-05-22 20:03:00,74.8,18.7,29.73,West,271,0.0,0.0,12,0.00,CLR,SCT,0.00,WeatherDisplay:10.37,2013-05-23 03:03:00,
2013-05-22 20:08:00,74.4,18.4,29.74,West,271,0.0,0.0,12,0.00,CLR,SCT,0.00,WeatherDisplay:10.37,2013-05-23 03:08:00,
2013-05-22 20:13:00,73.8,18.0,29.74,West,271,0.1,1.2,12,0.00,CLR,SCT,0.00,WeatherDisplay:10.37,2013-05-23 03:13:00,
2013-05-22 20:18:00,73.4,17.6,29.74,West,271,0.0,0.0,12,0.00,CLR,SCT,0.00,WeatherDisplay:10.37,2013-05-23 03:18:00,
2013-05-22 20:23:00,73.0,19.2,29.74,West,271,0.0,0.0,13,0.00,CLR,SCT,0.00,WeatherDisplay:10.37,2013-05-23 03:23:00,
2013-05-22 20:28:00,72.6,18.9,29.74,NNE,32,0.7,1.2,13,0.00,CLR,SCT,0.00,WeatherDisplay:10.37,2013-05-23 03:28:00,
2013-05-22 20:33:00,73.3,19.4,29.75,NE,45,0.0,0.0,13,0.00,CLR,SCT,0.00,WeatherDisplay:10.37,2013-05-23 03:33:00,
2013-05-22 20:38:00,73.5,19.6,29.75,NE,45,0.0,0.0,13,0.00,CLR,SCT,0.00,WeatherDisplay:10.37,2013-05-23 03:38:00,
2013-05-22 20:43:00,73.2,19.4,29.75,NE,45,0.0,0.0,13,0.00,CLR,SCT,0.00,WeatherDisplay:10.37,2013-05-23 03:43:00,
2013-05-22 20:48:00,72.7,19.0,29.75,NE,45,0.0,0.0,13,0.00,CLR,SCT,0.00,WeatherDisplay:10.37,2013-05-23 03:48:00,
2013-05-22 20:53:00,73.6,19.7,29.75,South,172,0.1,1.2,13,0.00,CLR,SCT,0.00,WeatherDisplay:10.37,2013-05-23 03:53:00,
2013-05-22 20:58:00,74.1,20.1,29.75,South,172,0.0,0.0,13,0.00,CLR,SCT,0.00,WeatherDisplay:10.37,2013-05-23 03:58:00,
2013-05-22 21:01:00,74.1,21.8,29.76,South,172,0.0,0.0,14,0.00,CLR,SCT,0.00,WeatherDisplay:10.37,2013-05-23 04:01:00,
2013-05-22 21:02:00,73.9,21.7,29.76,South,172,0.0,1.2,14,0.00,CLR,SCT,0.00,WeatherDisplay:10.37,2013-05-23 04:02:00,
2013-05-22 21:03:00,73.8,21.6,29.76,South,172,0.0,0.0,14,0.00,CLR,SCT,0.00,WeatherDisplay:10.37,2013-05-23 04:03:00,
2013-05-22 21:05:00,73.6,21.4,29.76,South,172,0.0,0.0,14,0.00,CLR,SCT,0.00,WeatherDisplay:10.37,2013-05-23 04:05:00,
2013-05-22 21:10:00,74.0,20.0,29.76,WSW,252,0.8,4.0,13,0.00,CLR,SCT,0.00,WeatherDisplay:10.37,2013-05-23 04:10:00,
2013-05-22 21:15:00,75.3,19.1,29.76,WSW,256,0.0,1.2,12,0.00,CLR,SCT,0.00,WeatherDisplay:10.37,2013-05-23 04:15:00,
2013-05-22 21:20:00,75.7,19.4,29.76,WNW,294,0.1,1.2,12,0.00,CLR,SCT,0.00,WeatherDisplay:10.37,2013-05-23 04:20:00,
2013-05-22 21:25:00,75.8,19.5,29.77,WNW,294,1.2,3.5,12,0.00,CLR,SCT,0.00,WeatherDisplay:10.37,2013-05-23 04:25:00,
2013-05-22 21:30:00,75.7,19.4,29.77,South,178,0.5,3.5,12,0.00,CLR,SCT,0.00,WeatherDisplay:10.37,2013-05-23 04:30:00,
2013-05-22 21:35:00,75.9,19.6,29.77,WSW,238,0.1,1.2,12,0.00,CLR,SCT,0.00,WeatherDisplay:10.37,2013-05-23 04:35:00,
2013-05-22 21:40:00,75.4,19.2,29.77,WSW,238,0.1,0.0,12,0.00,CLR,SCT,0.00,WeatherDisplay:10.37,2013-05-23 04:40:00,
2013-05-22 21:45:00,74.9,18.8,29.76,ESE,112,0.0,1.2,12,0.00,CLR,SCT,0.00,WeatherDisplay:10.37,2013-05-23 04:45:00,
2013-05-22 21:50:00,74.0,20.0,29.76,ESE,112,0.0,1.2,13,0.00,CLR,SCT,0.00,WeatherDisplay:10.37,2013-05-23 04:50:00,
2013-05-22 21:55:00,73.1,21.0,29.77,ESE,112,0.0,0.0,14,0.00,CLR,SCT,0.00,WeatherDisplay:10.37,2013-05-23 04:55:00,
2013-05-22 22:00:00,72.1,20.2,29.77,ESE,112,0.1,1.2,14,0.00,CLR,SCT,0.00,WeatherDisplay:10.37,2013-05-23 05:00:00,
2013-05-22 22:05:00,71.3,19.6,29.77,ESE,112,0.0,1.2,14,0.00,CLR,SCT,0.00,WeatherDisplay:10.37,2013-05-23 05:05:00,
2013-05-22 22:10:00,71.0,21.0,29.77,ESE,112,0.0,0.0,15,0.00,CLR,SCT,0.00,WeatherDisplay:10.37,2013-05-23 05:10:00,
2013-05-22 22:15:00,70.3,20.4,29.77,ESE,112,0.0,0.0,15,0.00,CLR,SCT,0.00,WeatherDisplay:10.37,2013-05-23 05:15:00,
2013-05-22 22:20:00,69.9,21.6,29.77,ESE,112,0.0,0.0,16,0.00,CLR,SCT,0.00,WeatherDisplay:10.37,2013-05-23 05:20:00,
2013-05-22 22:25:00,69.9,20.1,29.77,ESE,112,0.0,0.0,15,0.00,CLR,SCT,0.00,WeatherDisplay:10.37,2013-05-23 05:25:00,
2013-05-22 22:30:00,70.0,20.2,29.77,NNW,348,1.4,3.5,15,0.00,CLR,SCT,0.00,WeatherDisplay:10.37,2013-05-23 05:30:00,
2013-05-22 22:35:00,71.9,18.3,29.77,SW,226,0.5,3.5,13,0.00,CLR,SCT,0.00,WeatherDisplay:10.37,2013-05-23 05:35:00,
2013-05-22 22:40:00,73.6,17.8,29.76,South,190,0.0,1.0,12,0.00,CLR,SCT,0.00,WeatherDisplay:10.37,2013-05-23 05:40:00,
2013-05-22 22:45:00,74.1,18.2,29.76,WSW,253,0.0,0.0,12,0.00,CLR,SCT,0.00,WeatherDisplay:10.37,2013-05-23 05:45:00,
2013-05-22 22:50:00,74.0,20.0,29.76,WSW,253,0.0,0.0,13,0.00,CLR,SCT,0.00,WeatherDisplay:10.37,2013-05-23 05:50:00,
2013-05-22 22:55:00,73.5,19.6,29.76,WSW,253,0.0,0.0,13,0.00,CLR,SCT,0.00,WeatherDisplay:10.37,2013-05-23 05:55:00,
2013-05-22 23:00:00,72.7,20.7,29.76,WSW,253,0.0,0.0,14,0.00,CLR,SCT,0.00,WeatherDisplay:10.37,2013-05-23 06:00:00,
2013-05-22 23:05:00,71.2,21.1,29.76,WSW,253,0.0,0.0,15,0.00,CLR,SCT,0.00,WeatherDisplay:10.37,2013-05-23 06:05:00,
2013-05-22 23:10:00,70.1,20.3,29.76,WSW,253,0.0,0.0,15,0.00,CLR,SCT,0.00,WeatherDisplay:10.37,2013-05-23 06:10:00,
2013-05-22 23:15:00,69.3,19.6,29.76,WSW,253,0.0,0.0,15,0.00,CLR,SCT,0.00,WeatherDisplay:10.37,2013-05-23 06:15:00,
2013-05-22 23:20:00,68.6,20.6,29.76,West,269,0.0,0.0,16,0.00,CLR,SCT,0.00,WeatherDisplay:10.37,2013-05-23 06:20:00,
2013-05-22 23:25:00,67.7,19.8,29.76,West,269,0.0,0.0,16,0.00,CLR,SCT,0.00,WeatherDisplay:10.37,2013-05-23 06:25:00,
2013-05-22 23:30:00,67.1,20.8,29.76,West,269,0.0,0.0,17,0.00,CLR,SCT,0.00,WeatherDisplay:10.37,2013-05-23 06:30:00,
2013-05-22 23:35:00,66.8,20.5,29.76,West,269,0.0,0.0,17,0.00,CLR,SCT,0.00,WeatherDisplay:10.37,2013-05-23 06:35:00,
2013-05-22 23:40:00,66.1,21.3,29.76,West,269,0.0,1.2,18,0.00,CLR,SCT,0.00,WeatherDisplay:10.37,2013-05-23 06:40:00,
2013-05-22 23:45:00,65.6,20.9,29.76,West,269,0.0,0.0,18,0.00,CLR,SCT,0.00,WeatherDisplay:10.37,2013-05-23 06:45:00,
2013-05-22 23:50:00,65.2,20.6,29.76,West,269,0.0,0.0,18,0.00,CLR,SCT,0.00,WeatherDisplay:10.37,2013-05-23 06:50:00,
2013-05-22 23:55:00,64.8,21.5,29.77,West,269,0.0,0.0,19,0.00,CLR,SCT,0.00,WeatherDisplay:10.37,2013-05-23 06:55:00,